Regional Weather Roundup
Issued by NWS

Home | Current Version | Previous Version | Text Only | Print | Product List | Glossary Off
Versions: 1 2 3 4 5 6 7 8 9 10 11 12 13 14 15 16 17 18 19 20 21 22 23 24 25 26 27 28 29 30 31 32 33 34 35 36 37 38 39 40 41 42 43 44 45 46 47 48 49 50

000
ASUS45 KSLC 190210
RWRUT

UTAH REGIONAL WEATHER ROUNDUP
NATIONAL WEATHER SERVICE SALT LAKE CITY UT
800 PM MDT SAT APR 18 2015

UTZ001>011-023>025-190300-

NORTHERN UTAH

CITY           SKY/WX    TMP DP  RH WIND       PRES   REMARKS
BRIGHAM CITY   CLEAR     64  27  25 NW9       29.97S
HILL AFB       CLEAR     62  31  31 W2        29.98S
LOGAN          CLEAR     58  36  43 N5        29.96S
OGDEN          CLEAR     62  32  32 CALM      29.96F
PROVO AIRPORT  PTCLDY    61  32  33 NW14      29.97R
SALT LAKE CITY PTCLDY    63  29  27 NW7       29.96F
VERNAL         CLOUDY    50  35  56 NE12      30.04R
WENDOVER       CLEAR     66  16  14 N20       30.00R
HEBER CITY     PTCLDY    55  27  33 W3        29.99S
WEST JORDAN    CLEAR     57  36  44 N6        29.98S

$$

UTZ012>022-026-027-190300-

SOUTHERN/CENTRAL UTAH

CITY           SKY/WX    TMP DP  RH WIND       PRES   REMARKS
BLANDING       CLOUDY    44  38  80 S8        30.08F
BRYCE CANYON   CLEAR     52  15  23 NW13G23   30.08S
CEDAR CITY     CLEAR     57  16  20 NE8       29.99S
DELTA          CLEAR     65  16  15 N10       29.98R
HANKSVILLE     PTCLDY    63  32  31 NE10      29.94R
MILFORD        CLEAR     63  17  17 NE9       29.97S
MOAB/CYNLANDS  CLOUDY    56  39  53 N21G26    29.97R
PRICE          PTCLDY    58  27  30 NW16G22   29.98R
ST GEORGE      PTCLDY    77  19  11 SW8       29.87S
KANAB          CLEAR     63  18  17 NW6       29.99R

$$

REGIONAL REPORTS     COLORADO/ARIZONA

CITY           SKY/WX    TMP DP  RH WIND       PRES   REMARKS
CRAIG, CO      CLOUDY    36  32  85 NW3       30.04S
GRAND JUNCTION MOCLDY    42  38  85 S10       30.02S
RIFLE          CLOUDY    35  33  92 CALM      30.04R
MONTROSE       MOCLDY    41  37  86 SE6       30.06S
CORTEZ         CLEAR     52  32  46 N6        29.98R
PAGE, AZ       MOCLDY    73  19  13 NW12G18   29.89S
GRAND CANYON   CLEAR     58  11  15 VRB6      30.05R
KINGMAN        CLEAR     75   6   7 W12       29.92S
FLAGSTAFF      PTCLDY    56  11  16 NW6       30.06R

$$

REGIONAL REPORTS    NEVADA/IDAHO/WYOMING

CITY           SKY/WX    TMP DP  RH WIND       PRES   REMARKS
LAS VEGAS, NV  PTCLDY    84  14   7 S15       29.78F
ELY            PTCLDY    61  10  13 N10       30.05S
ELKO           CLEAR     62  23  22 NW14      30.06S
POCATELLO, ID  CLEAR     64  26  23 N5        29.99R
BURLEY         CLEAR     61  27  27 W14G22    29.99S
EVANSTON, WY   PTCLDY    50  21  32 N16       30.04S
ROCK SPRINGS   CLOUDY    44  33  65 SE14      30.05R
KEMMERER       PTCLDY    50  19  29 NW13G20   30.04R

$$



USA.gov is the U.S. government's official web portal to all federal, state and local government web resources and services.